This is the latest recevied weather packets stored in our database for station/object IU0KRR-10. If no packets are shown the sender has not sent any weather packets the latest 10 day(s).
| Time | Temp. | Humidity | Pressure | Rain* | Wind** | Luminosity | Snow |
|---|---|---|---|---|---|---|---|
| 1778035466 | 20.56° C | 41% | 870 hPa | - | - | - | - |
| 1778034566 | 21.11° C | 41% | 870 hPa | - | - | - | - |
| 1778033666 | 21.11° C | 40% | 870.1 hPa | - | - | - | - |
| 1778032764 | 21.11° C | 40% | 870.2 hPa | - | - | - | - |
| 1778031864 | 21.11° C | 40% | 870 hPa | - | - | - | - |
| 1778030964 | 21.11° C | 40% | 870.3 hPa | - | - | - | - |
| 1778030064 | 21.67° C | 39% | 870.4 hPa | - | - | - | - |
| 1778029164 | 21.67° C | 39% | 870.3 hPa | - | - | - | - |
| 1778028264 | 21.67° C | 39% | 870.4 hPa | - | - | - | - |
| 1778027364 | 21.67° C | 39% | 870.3 hPa | - | - | - | - |
| 1778026464 | 21.11° C | 40% | 870.5 hPa | - | - | - | - |
| 1778025563 | 21.67° C | 40% | 870.6 hPa | - | - | - | - |
| 1778024663 | 21.67° C | 39% | 870.8 hPa | - | - | - | - |
| 1778023763 | 21.67° C | 39% | 871 hPa | - | - | - | - |
| 1778022862 | 21.67° C | 39% | 871.3 hPa | - | - | - | - |
| 1778021962 | 21.67° C | 40% | 871.3 hPa | - | - | - | - |
| 1778021061 | 21.67° C | 39% | 871.3 hPa | - | - | - | - |
| 1778020161 | 21.67° C | 38% | 871.4 hPa | - | - | - | - |
| 1778019291 | 22.22° C | 38% | 871.5 hPa | - | - | - | - |
| 1778019260 | 22.22° C | 38% | 871.5 hPa | - | - | - | - |
| 1778018360 | 22.22° C | 38% | 871.6 hPa | - | - | - | - |
| 1778017459 | 22.78° C | 38% | 871.8 hPa | - | - | - | - |
| 1778016559 | 22.78° C | 38% | 871.8 hPa | - | - | - | - |
| 1778015659 | 23.33° C | 37% | 872 hPa | - | - | - | - |
| 1778014759 | 22.78° C | 38% | 872.1 hPa | - | - | - | - |
* Rain since midnight (hover to see other rain measurements)
** Current wind speed in m/s (hover to see current wind gust speed)